CZ-6A DEB

Satellite information

Favourite Embed

Satellite Type and Status

DEBRISIN ORBIT

Key statistics

Satellite CZ-6A DEB at a glance.

Uptime

335

Days in orbit

Revolutions

≈ 14.2

Per day

Orbit

LEO

Low Earth Orbit

Inclination

89.1

Latest

Satellite identification and parameters

Extended collection of information and parameters for CZ-6A DEB.

Object identification

Identified? True

Debris? True

Object name: CZ-6A DEB

International designator: 2024-140PB

Object number (NORAD): 61109

Object ID (CCSDS): 61109

Country: PEOPLES REPUBLIC OF CHINA (PRC)

Current information (Y/N): Y

RCS size: SMALL

Orbital parameters

Period: 101.387 minutes

Inclination: 89.0903 deg

SMA: 7202.468 km

Apoapsis: 854.689 km

Periapsis: 793.976 km

RAAN: 316.9756 deg

Eccentricy: 0.0042147

Argument of periapsis: 251.3759 deg

Mean anomaly: 108.2852 deg

Mean motion: 14.20302293 rev/day

Mean motion (dot): 0.00000236 rev/day2

B* drag term: 0.00010309 1/REarth

Two-line elements (TLE)

Creation date: July 6, 2025, 6:05 p.m.

Reference frame: TEME

Reference center: EARTH

Epoch: July 6, 2025, 9:09 a.m. UTC

TLE line 0: 0 CZ-6A DEB

TLE line 1: 1 61109U 24140PB 25187.38132758 .00000236 00000-0 10309-3 0 9995

TLE line 2: 2 61109 89.0903 316.9756 0042147 251.3759 108.2852 14.20302293 43352

Live tracking on map

Real-time ground track for satellite CZ-6A DEB.

In-orbit conjunctions

A list of the most updated potential collisions computed for object CZ-6A DEB.

Target Orbit TCA Probability of collision Miss distance Type
FENGYUN 1C DEB SSO 2025-03-24 16:31:53 0.0001045823 50.0 (m) DEBRIS
COSMOS 1833 LEO 2025-02-11 18:12:25 0.001269331 184.0 (m) PAYLOAD
CZ-6A DEB LEO 2025-01-26 01:19:45 0.0003126076 741.0 (m) DEBRIS
CZ-4C DEB SSO 2024-11-26 13:34:19 0.0001362282 952.0 (m) DEBRIS
COSMOS 1275 DEB LEO 2024-11-22 10:33:16 0.0001306248 759.0 (m) DEBRIS

Associated space launch

18 Low Earth Orbit communication satellites with Ku, Q and V band payloads for the G60 constellation operated by Shanghai Spacecom Satellite Technology (SSST) with funding backed by the Shanghai local government. Initial constellation will consist of 1296 satellites by 2027 with long term plans to expand it to 12000 satellites.

CZ-6A DEB was lifted into orbit during the mission ‘Long March 6A | G60 Polar Group 01’, on board a Long March 6A space rocket.

The launch took place on Aug. 6, 2024, 6:42 a.m. from Launch Complex 9A.

For more information about the launch, click the button.

Launch to space Long March 6A | G60 Polar Group 01
Long March 6A | G60 Polar Group 01

Agency: N/A

Status: Launch Successful

Launch date: Aug. 6, 2024, 6:42 a.m. UTC

Rocket: Long March 6A

Launch pad: Launch Complex 9A

Location: Taiyuan Satellite Launch Center, People's Republic of China

...

Latest news about this satellite

News about space launch
Brightness of first Chinese broadband constellation satellites alarms astronomers

The first satellites of a Chinese broadband constellation are significantly brighter than those of Western systems, posing a new challenge for astronomers.

News about space launch
Chinese rocket stage breaks up into cloud of more than 700 pieces of space debris

HELSINKI — A Chinese Long March 6A rocket’s upper stage has fragmented into a cloud of over 700 pieces of space debris, adding to concerns about long-term orbital safety. China […]

News about space launch
China's Thousand Sails Megaconstellation Kicks Off with Dangerous Debris Field

China's Thousand Sails Megaconstellation Kicks Off with Dangerous Debris Field


Newsletter sign-up

Weekly statistics, charts and insights to help you stay on top of the space industry.